Location: Bun Machan
(52.1403°N, 7.3744°W)
Time: 08:29:32
(UTC+00:00)

YAOGAN 11 - Pass Details

Date: 14 July 2020
Orbit: 615 x 667 km, 98.3° (Epoch: 04 August)

Event Time Altitude Azimuth Distance (km) Brightness Sun altitude
Exits shadow 00:44:19 30° 185° (S) 1,158 4.9 -16.2°
Maximum altitude 00:46:25 64° 257° (WSW) 720 4.3 -16.2°
Drops below altitude 10° 00:50:54 10° 340° (NNW) 2,071 7.8 -16.2°
Sets 00:53:10 0° 343° (NNW) 2,995 8.9 -16.1°
